Cloud_Cover
100 100 100 96 100 100 100 100 100 100 69 8 0 0 0 0 0 0 0 0 0 0 0 0 0 0 0 2 5 95 63 44 5 98 100 100 100 7 60 9 45 100 69 44 94
100 93 97 100 100 100 100 100 100 94 76 46 14 0 0 0 0 0 0 0 0 0 0 0 0 0 0 0 64 6 97 82 32 97 100 100 73 66 14 20 15 5 5 8 99
100 91 97 100 100 100 100 100 100 100 64 37 74 1 0 0 0 0 0 0 0 0 0 0 0 0 0 0 57 12 9 100 100 34 13 85 61 5 12 81 97 33 10 0 40
83 100 100 100 100 100 100 100 100 100 100 100 98 20 3 0 0 0 0 0 0 0 0 0 0 0 0 0 12 97 43 100 100 65 5 89 100 93 7 73 78 95 65 100 5
52 100 100 100 100 100 100 100 100 100 100 100 100 100 27 0 0 0 0 0 0 0 0 0 0 0 0 5 82 100 73 100 100 100 49 10 100 100 79 36 7 42 92 71 51
100 90 92 99 100 100 100 100 100 100 100 100 100 100 44 2 0 0 0 0 0 0 0 0 0 0 0 5 56 98 100 64 100 99 88 56 100 100 75 97 57 100 99 97 96
100 100 99 97 100 100 100 100 100 100 100 100 100 100 95 0 0 0 0 0 0 0 0 0 0 0 0 23 45 86 99 63 55 97 24 100 70 100 100 97 100 74 6 68 81
100 100 100 100 93 100 100 100 100 100 100 100 100 100 49 0 4 0 0 0 0 0 0 0 0 0 1 6 74 88 93 8 78 100 23 82 5 100 100 100 62 100 100 100 98
100 100 100 100 100 100 100 100 47 17 86 100 100 98 9 4 4 0 2 26 3 0 0 0 0 0 3 14 100 100 100 68 100 100 75 40 25 100 100 94 5 71 100 100 100
100 100 100 100 100 100 92 100 75 59 72 93 100 100 45 12 15 0 3 87 5 2 0 0 0 0 4 75 100 34 100 100 100 100 68 5 12 100 100 100 98 82 100 100 100
90 100 71 100 5 98 72 67 36 100 100 28 95 100 82 8 5 5 3 88 100 100 0 0 0 0 0 0 1 100 100 100 100 100 6 100 27 100 100 100 100 100 95 100 100
100 100 100 63 5 85 81 100 93 34 40 72 84 100 100 81 69 6 4 100 100 100 0 0 0 0 0 95 100 99 100 100 100 99 3 100 30 100 100 100 100 100 100 100 100
100 100 7 4 0 0 42 16 100 100 100 77 84 100 100 43 86 56 5 100 100 100 0 0 0 0 0 0 0 3 87 100 100 98 81 49 80 100 100 100 100 100 100 100 100
44 5 6 8 0 93 19 95 94 99 100 58 100 100 87 99 81 100 25 100 100 100 0 0 0 0 0 0 0 0 44 100 100 100 89 23 11 100 100 100 100 100 100 100 100
0 8 89 98 89 5 1 75 100 100 20 56 100 100 100 100 87 91 100 100 100 100 30 2 0 0 0 0 0 2 100 100 100 100 100 34 6 8 100 100 100 100 100 100 100
91 89 89 70 100 57 15 58 100 100 69 42 100 100 100 100 94 100 100 100 100 100 100 0 0 0 4 0 0 0 46 100 100 100 100 43 66 100 100 100 100 100 100 100 100
5 5 4 14 4 16 67 87 100 100 0 86 84 100 84 100 100 100 100 100 100 99 100 2 63 2 0 0 0 4 99 55 95 100 100 94 45 100 83 100 100 100 100 100 100
5 0 0 20 65 78 54 100 100 1 4 45 100 100 91 99 100 100 92 100 100 100 100 98 9 4 0 5 5 5 5 58 92 100 100 99 83 58 77 19 100 100 100 100 100
4 4 6 83 90 100 92 100 3 2 24 100 100 98 100 97 91 100 72 100 100 100 100 99 100 9 5 1 22 28 1 14 100 100 98 100 88 6 4 100 99 100 100 100 100
72 31 99 20 87 100 100 4 5 70 100 100 100 100 100 100 97 97 100 100 100 100 100 100 100 28 5 13 13 5 23 4 29 100 100 100 100 100 29 5 40 99 97 67 16
84 29 86 94 66 100 76 3 2 100 100 100 100 100 100 100 98 100 96 100 100 100 100 100 100 100 86 4 5 6 34 5 80 100 100 100 100 100 100 87 56 50 96 30 62
100 100 93 94 100 100 94 5 54 100 100 100 100 100 100 100 100 100 91 100 100 100 100 100 100 100 97 51 32 99 95 30 60 94 100 100 100 100 100 100 79 5 4 3 3
100 100 100 100 100 100 100 34 8 66 100 100 100 100 100 100 100 100 100 100 100 100 100 100 100 100 100 75 4 51 59 97 63 100 100 100 100 100 100 76 96 96 79 3 0
100 100 100 100 100 100 100 68 34 79 100 100 100 100 100 100 100 100 100 100 100 100 100 100 100 100 94 100 73 5 76 98 100 92 100 52 65 99 53 44 54 17 34 39 99
56 86 94 100 100 100 100 100 100 100 100 100 100 100 100 100 100 100 100 100 100 100 100 100 100 100 100 100 98 96 98 100 73 88 84 65 73 68 69 89 92 100 94 4 17
98 100 100 100 100 100 100 100 100 100 100 100 100 100 100 100 100 100 100 100 100 100 100 100 100 100 100 100 100 100 100 100 100 100 100 100 97 100 100 97 39 5 30 53 5
79 100 100 100 100 100 100 100 100 100 100 100 100 100 100 100 100 100 100 100 100 100 100 100 100 100 100 100 100 100 100 100 100 100 100 100 100 79 98 100 100 53 44 5 5